[[{"header":{"parameterUnit":"m.s-1","parameterCategory":1,"la1":30.2991,"la2":30.254,"lo1":-89.0895,"lo2":-89.0444,"dy":0.0017,"dx":0.0017,"nx":28,"ny":28,"refTime":"2024-08-11T03:00:00:Z","depth":0,"parameterNumber":2,"parameterNumberName":"U-component_of_WINDS"},"data":[0,0,0,0,0,0,0,0,0,0,0,0,0,0,0,0,0,0,0,0,0,0,0,0,0,0,0,0,0,0,0,0,0,0,0,0,0,0,0,0,0,0,0,0,0,0,0,0,0,0,0,0,0,0,0,0,0,0,-0.751,-0.7509,0,-0.7361,-0.7359,-0.7357,-0.734,-0.7342,-0.7343,-0.7345,-0.7181,-0.7176,-0.717,0,0,0,0,0,0,0,0,0,0,0,0,0,-0.7769,-0.7765,-0.751,-0.7509,-0.7507,-0.7361,-0.7359,-0.7357,-0.734,-0.7342,-0.7344,-0.7346,-0.7183,-0.7176,-0.7169,0,0,0,0,0,0,0,0,0,0,0,0,0,-0.7642,-0.7763,-0.7511,-0.7481,-0.7477,-0.7361,-0.7359,-0.7356,-0.734,-0.7342,-0.7344,-0.7346,-0.7185,-0.7177,-0.7168,-0.7069,0,0,-0.7142,-0.7138,0,0,0,0,0,0,0,0,-0.7649,-0.7632,-0.7487,-0.7483,-0.7478,-0.7372,-0.739,-0.7259,-0.7339,-0.7391,-0.7345,-0.7348,-0.7242,-0.7229,-0.7195,-0.7061,-0.7054,-0.7141,-0.7136,-0.7132,-0.713,0,0,0,0,0,0,0,-0.7658,-0.7639,-0.7451,-0.7485,-0.7479,-0.7471,-0.7455,-0.7365,-0.7305,-0.7387,-0.7386,-0.7369,-0.724,-0.7204,-0.7191,-0.7052,-0.7141,-0.7134,-0.7128,-0.7125,-0.6822,-0.6819,0,0,0,0,0,0,-0.7674,-0.7646,-0.7456,-0.7446,-0.7571,-0.7465,-0.7447,-0.7403,-0.7306,-0.7294,-0.7367,-0.7368,-0.7218,-0.7202,-0.7186,-0.7059,-0.7132,-0.7124,-0.7119,-0.6825,-0.6821,-0.6818,0,0,0,0,0,0,-0.768,-0.7657,-0.7462,-0.7546,-0.752,-0.7458,-0.7409,-0.7399,-0.7363,-0.7291,-0.7279,-0.7342,-0.7219,-0.7198,-0.7097,-0.7053,-0.712,-0.7112,-0.6828,-0.6824,-0.682,-0.6807,0,0,0,0,0,0,-0.7687,-0.7659,-0.7624,-0.7545,-0.7516,-0.738,-0.7406,-0.7395,-0.735,-0.735,-0.7265,-0.7252,-0.7219,-0.7111,-0.7089,-0.7042,-0.7106,-0.6832,-0.6826,-0.6821,-0.6811,-0.6802,-0.6795,0,0,0,0,0,-0.7696,-0.7625,-0.7622,-0.7599,-0.7471,-0.7377,-0.736,-0.7326,-0.7346,-0.7308,-0.7261,-0.7255,-0.7062,-0.71,-0.7076,-0.7026,-0.6834,-0.6828,-0.6822,-0.6814,-0.6804,-0.6796,0,0,0,0,0,0,-0.7698,-0.7615,-0.761,-0.7513,-0.7452,-0.7375,-0.7326,-0.7317,-0.7248,-0.7251,-0.7208,-0.7189,-0.7089,-0.7048,-0.7092,-0.6921,-0.6949,-0.6938,-0.6952,-0.6942,-0.6934,-0.6945,-0.7098,0,0,0,0,0,-0.7688,-0.7622,-0.7551,-0.7471,-0.7442,-0.7389,-0.7347,-0.7326,-0.726,-0.7234,-0.718,-0.7113,-0.7037,-0.6988,-0.6914,-0.6805,-0.6783,-0.6758,-0.6751,-0.6745,-0.6734,-0.6668,-0.6654,-0.6797,-0.6797,-0.6798,0,0,-0.7664,-0.761,-0.7571,-0.747,-0.7421,-0.735,-0.7368,-0.7292,-0.7237,-0.7221,-0.7123,-0.7081,-0.7003,-0.6897,-0.6847,-0.6859,-0.669,-0.6736,-0.6732,-0.6725,-0.666,-0.6646,-0.6634,-0.6793,-0.6794,-0.6794,0,0,-0.7584,-0.7539,-0.7466,-0.7416,-0.7342,-0.7307,-0.7289,-0.7212,-0.7184,-0.7086,-0.7071,-0.7002,-0.6874,-0.6818,-0.6772,-0.6668,-0.6658,-0.6645,-0.6603,-0.6539,-0.6528,-0.6518,-0.6475,-0.6461,-0.6635,-0.6635,-0.6635,0,-0.7563,-0.7459,-0.7428,-0.7352,-0.7306,-0.7291,-0.7212,-0.7165,-0.7069,-0.7035,-0.7051,-0.6886,-0.6833,-0.6711,-0.6686,-0.6651,-0.6625,-0.6653,-0.6533,-0.6522,-0.6512,-0.6471,-0.6456,-0.6633,-0.6634,-0.6634,-0.6634,0,-0.7434,-0.7362,-0.7311,-0.7221,-0.7169,-0.7092,-0.7045,-0.6995,-0.6978,-0.6939,-0.6836,-0.6772,-0.6683,-0.6653,-0.6634,-0.6526,-0.6535,-0.6543,-0.6569,-0.6497,-0.6458,-0.6442,-0.6631,-0.6632,-0.6632,-0.6633,0,0,-0.7352,-0.7245,-0.7226,-0.7183,-0.7099,-0.704,-0.696,-0.6876,-0.6831,-0.6765,-0.6694,-0.6584,-0.6589,-0.6537,-0.6512,-0.6456,-0.6371,-0.6469,-0.6467,-0.6449,-0.6241,-0.6234,-0.6217,-0.6365,-0.6362,-0.636,-0.6246,0,-0.7259,-0.7121,-0.7089,-0.6968,-0.6897,-0.688,-0.681,-0.6748,-0.6709,-0.664,-0.6595,-0.6516,-0.6532,-0.65,-0.6444,-0.6394,-0.6328,-0.6402,-0.6293,-0.6289,-0.631,-0.6197,-0.619,-0.6086,-0.6231,-0.6229,-0.6227,0,-0.7133,-0.7066,-0.6939,-0.686,-0.6829,-0.6767,-0.6684,-0.662,-0.6547,-0.6522,-0.6464,-0.6443,-0.6354,-0.6387,-0.6261,-0.6312,-0.6265,-0.6233,-0.6228,-0.6213,-0.6252,-0.6175,-0.6052,-0.6035,-0.6203,-0.6205,-0.6207,0,-0.708,-0.6958,-0.6864,-0.6829,-0.6736,-0.6692,-0.665,-0.658,-0.653,-0.6456,-0.6422,-0.6338,-0.6291,-0.6224,-0.6179,-0.6209,-0.6054,-0.6085,-0.6026,-0.6027,-0.5993,-0.5995,-0.5856,-0.5969,-0.5969,-0.597,-0.597,0,-0.6978,-0.69,-0.6839,-0.6781,-0.6691,-0.6653,-0.6563,-0.652,-0.6457,-0.6387,-0.6367,-0.63,-0.6248,-0.6172,-0.6137,-0.6034,-0.6014,-0.5987,-0.5978,-0.5987,-0.599,-0.5953,-0.5958,-0.5965,-0.5966,-0.5967,-0.5968,0,-0.6903,-0.686,-0.6756,-0.6677,-0.6655,-0.6591,-0.6521,-0.6461,-0.6421,-0.6332,-0.6309,-0.6245,-0.6155,-0.6105,-0.5992,-0.5967,-0.5851,-0.5847,-0.5876,-0.5872,-0.5814,-0.5819,-0.5644,-0.5617,-0.5752,-0.5751,-0.575,0,-0.684,-0.6779,-0.6693,-0.6646,-0.6604,-0.6529,-0.6477,-0.6436,-0.6382,-0.6293,-0.6242,-0.6152,-0.6077,-0.5933,-0.5874,-0.5785,-0.5776,-0.5721,-0.5763,-0.5772,-0.577,-0.5773,-0.5764,-0.5713,-0.5712,-0.5711,-0.571,0,-0.673,-0.6711,-0.664,-0.6559,-0.6499,-0.6433,-0.6367,-0.6328,-0.6275,-0.6214,-0.6124,-0.6066,-0.595,-0.5858,-0.5764,-0.5716,-0.5701,-0.5698,-0.5679,-0.5686,-0.5703,-0.5688,-0.5853,-0.5702,-0.5702,-0.5703,-0.5704,-0.5704,-0.6656,-0.6599,-0.6529,-0.6448,-0.6395,-0.6333,-0.6272,-0.6224,-0.6149,-0.6053,-0.6032,-0.5935,-0.5858,-0.5731,-0.5681,-0.56,-0.561,-0.5584,-0.5576,-0.5569,-0.5565,-0.5719,-0.5583,-0.5584,-0.5584,-0.5584,-0.5584,0,-0.6541,-0.6495,-0.6421,-0.633,-0.6265,-0.6262,-0.6187,-0.6132,-0.6047,-0.5979,-0.5906,-0.5798,-0.5708,-0.5641,-0.5548,-0.5496,-0.5486,-0.5472,-0.5474,-0.5461,-0.5564,-0.5588,-0.5481,-0.5481,-0.5481,-0.5481,-0.5481,-0.5481,-0.6474,-0.6376,-0.6348,-0.6222,-0.6174,-0.6081,-0.6038,-0.5979,-0.5924,-0.5806,-0.5732,-0.569,-0.5619,-0.552,-0.5435,-0.5418,-0.5382,-0.5368,-0.5348,-0.5444,-0.5455,-0.5465,-0.5487,-0.5362,-0.5361,-0.5252,-0.5251,-0.525]},{"header":{"parameterUnit":"m.s-1","parameterCategory":1,"la1":30.2991,"la2":30.254,"lo1":-89.0895,"lo2":-89.0444,"dy":0.0017,"dx":0.0017,"nx":28,"ny":28,"refTime":"2024-08-11T03:00:00:Z","depth":0,"parameterNumber":3,"parameterNumberName":"V-component_of_WINDS"},"data":[0,0,0,0,0,0,0,0,0,0,0,0,0,0,0,0,0,0,0,0,0,0,0,0,0,0,0,0,0,0,0,0,0,0,0,0,0,0,0,0,0,0,0,0,0,0,0,0,0,0,0,0,0,0,0,0,0,0,-0.3676,-0.3674,0,-0.3491,-0.3489,-0.3487,-0.3518,-0.3521,-0.3524,-0.3527,-0.3334,-0.3326,-0.3318,0,0,0,0,0,0,0,0,0,0,0,0,0,-0.4052,-0.4045,-0.3676,-0.3673,-0.3671,-0.3491,-0.3489,-0.3486,-0.3517,-0.3521,-0.3525,-0.3529,-0.3337,-0.3327,-0.3317,0,0,0,0,0,0,0,0,0,0,0,0,0,-0.388,-0.4043,-0.3676,-0.3665,-0.3662,-0.3492,-0.3489,-0.3486,-0.3517,-0.3521,-0.3526,-0.3531,-0.334,-0.3328,-0.3316,-0.3144,0,0,-0.3279,-0.3274,0,0,0,0,0,0,0,0,-0.389,-0.3866,-0.3669,-0.3666,-0.3662,-0.3533,-0.3551,-0.3371,-0.3515,-0.3572,-0.3527,-0.3533,-0.3396,-0.338,-0.3334,-0.3135,-0.3127,-0.3278,-0.327,-0.3265,-0.3262,0,0,0,0,0,0,0,-0.3902,-0.3874,-0.3603,-0.3666,-0.3662,-0.3668,-0.3649,-0.3517,-0.3459,-0.3567,-0.3569,-0.3547,-0.3395,-0.3346,-0.333,-0.3124,-0.3278,-0.3267,-0.326,-0.3255,-0.2774,-0.2769,0,0,0,0,0,0,-0.3917,-0.3884,-0.3608,-0.3597,-0.379,-0.3658,-0.3636,-0.3569,-0.346,-0.3449,-0.3543,-0.3549,-0.3364,-0.3344,-0.3323,-0.3113,-0.3265,-0.3254,-0.3247,-0.2779,-0.2773,-0.2767,0,0,0,0,0,0,-0.3925,-0.3892,-0.3616,-0.3741,-0.3706,-0.3646,-0.357,-0.3563,-0.3514,-0.3442,-0.3432,-0.3503,-0.3367,-0.334,-0.3189,-0.3107,-0.3248,-0.3237,-0.2786,-0.2777,-0.277,-0.2694,0,0,0,0,0,0,-0.3936,-0.3895,-0.383,-0.3739,-0.37,-0.3485,-0.3565,-0.3556,-0.3493,-0.3499,-0.3402,-0.3391,-0.3369,-0.3207,-0.3176,-0.3093,-0.3228,-0.2793,-0.2782,-0.2773,-0.2703,-0.2684,-0.2667,0,0,0,0,0,-0.3949,-0.3815,-0.3826,-0.3793,-0.3617,-0.348,-0.3457,-0.3436,-0.3487,-0.342,-0.3374,-0.3394,-0.3122,-0.3191,-0.3157,-0.3069,-0.2798,-0.2785,-0.2773,-0.2711,-0.2688,-0.2668,0,0,0,0,0,0,-0.3895,-0.3802,-0.3814,-0.3647,-0.3571,-0.3486,-0.34,-0.3412,-0.3319,-0.3329,-0.3306,-0.3283,-0.3129,-0.3084,-0.3163,-0.2897,-0.2967,-0.2947,-0.2931,-0.2908,-0.2891,-0.2903,-0.3217,0,0,0,0,0,-0.3864,-0.3762,-0.3686,-0.3546,-0.3508,-0.3461,-0.34,-0.3391,-0.3311,-0.3279,-0.3222,-0.3143,-0.304,-0.2972,-0.2873,-0.2698,-0.2677,-0.2621,-0.2603,-0.2589,-0.2571,-0.2474,-0.2448,-0.2727,-0.2727,-0.2727,0,0,-0.3797,-0.3735,-0.3671,-0.3533,-0.3474,-0.3367,-0.3433,-0.3318,-0.3239,-0.3261,-0.3114,-0.307,-0.298,-0.2816,-0.2741,-0.2774,-0.249,-0.2573,-0.2562,-0.2552,-0.2459,-0.2433,-0.2409,-0.2719,-0.272,-0.2721,0,0,-0.3622,-0.3565,-0.3441,-0.3381,-0.3291,-0.3261,-0.3231,-0.3144,-0.3116,-0.2969,-0.2983,-0.2889,-0.2711,-0.2647,-0.2591,-0.2393,-0.2408,-0.2362,-0.2267,-0.2173,-0.2151,-0.2132,-0.206,-0.2034,-0.2345,-0.2345,-0.2345,0,-0.355,-0.3392,-0.3376,-0.3259,-0.3197,-0.3215,-0.3089,-0.3031,-0.2912,-0.2869,-0.2909,-0.2687,-0.2628,-0.2448,-0.24,-0.2355,-0.2319,-0.2371,-0.2156,-0.2136,-0.2118,-0.2049,-0.2022,-0.234,-0.234,-0.2341,-0.2341,0,-0.3308,-0.3198,-0.3109,-0.2995,-0.2924,-0.2803,-0.2767,-0.2697,-0.2695,-0.266,-0.251,-0.2441,-0.2328,-0.2285,-0.2281,-0.2105,-0.2128,-0.2162,-0.2232,-0.2086,-0.2021,-0.1994,-0.2332,-0.2334,-0.2336,-0.2337,0,0,-0.3089,-0.2971,-0.2938,-0.2886,-0.2789,-0.2703,-0.2584,-0.2475,-0.2414,-0.2333,-0.2231,-0.2082,-0.2113,-0.2049,-0.2039,-0.1957,-0.1803,-0.2001,-0.1998,-0.1964,-0.1603,-0.1576,-0.1546,-0.1814,-0.1809,-0.1805,-0.161,0,-0.2903,-0.2692,-0.2675,-0.2484,-0.2382,-0.2399,-0.2294,-0.2223,-0.2188,-0.2096,-0.2058,-0.1952,-0.2002,-0.1964,-0.1884,-0.1839,-0.173,-0.1853,-0.1716,-0.1712,-0.1735,-0.1512,-0.1482,-0.1302,-0.1585,-0.158,-0.1577,0,-0.2657,-0.2569,-0.2369,-0.2287,-0.2243,-0.2149,-0.2049,-0.1961,-0.188,-0.1861,-0.1791,-0.1792,-0.1668,-0.1745,-0.1573,-0.1657,-0.1601,-0.1571,-0.1563,-0.1547,-0.1633,-0.1487,-0.1244,-0.1216,-0.1537,-0.154,-0.1543,0,-0.2515,-0.2347,-0.2206,-0.2162,-0.2063,-0.1996,-0.1952,-0.1877,-0.1813,-0.1725,-0.1683,-0.1581,-0.1525,-0.1446,-0.1419,-0.1478,-0.1248,-0.1323,-0.1226,-0.1227,-0.1174,-0.1177,-0.0916,-0.1143,-0.1143,-0.1144,-0.1144,0,-0.2307,-0.2183,-0.2141,-0.2053,-0.1915,-0.1897,-0.176,-0.172,-0.1653,-0.1557,-0.1566,-0.1476,-0.1448,-0.1352,-0.1331,-0.1191,-0.1166,-0.1146,-0.1141,-0.1143,-0.1145,-0.1103,-0.1114,-0.1136,-0.1138,-0.1139,-0.1141,0,-0.2123,-0.209,-0.1937,-0.1857,-0.1834,-0.1735,-0.1666,-0.1582,-0.1551,-0.1429,-0.14,-0.1349,-0.1238,-0.1204,-0.107,-0.1056,-0.0891,-0.0899,-0.0918,-0.0917,-0.0822,-0.083,-0.0522,-0.048,-0.0737,-0.0735,-0.0733,0,-0.1991,-0.1896,-0.1807,-0.1744,-0.1697,-0.1596,-0.1531,-0.1511,-0.1442,-0.1345,-0.1272,-0.1162,-0.1073,-0.0894,-0.0845,-0.0742,-0.0746,-0.0645,-0.073,-0.0735,-0.0742,-0.0746,-0.0736,-0.0628,-0.0625,-0.0623,-0.0621,0,-0.1759,-0.1748,-0.1655,-0.1556,-0.1479,-0.14,-0.1323,-0.1271,-0.124,-0.1163,-0.1049,-0.0981,-0.0845,-0.0735,-0.0631,-0.0585,-0.0596,-0.0596,-0.0567,-0.0567,-0.0581,-0.057,-0.0872,-0.0602,-0.0604,-0.0605,-0.0606,-0.0607,-0.1596,-0.1512,-0.1436,-0.1332,-0.1274,-0.1202,-0.1119,-0.1078,-0.0984,-0.0872,-0.0866,-0.0743,-0.0666,-0.0528,-0.0476,-0.038,-0.0409,-0.0368,-0.0358,-0.0347,-0.0339,-0.06,-0.0361,-0.0361,-0.0362,-0.0362,-0.0363,0,-0.1362,-0.1315,-0.122,-0.1114,-0.1032,-0.1054,-0.0971,-0.09,-0.0792,-0.072,-0.0633,-0.0503,-0.0398,-0.0341,-0.0236,-0.0169,-0.0172,-0.0142,-0.0145,-0.0134,-0.0319,-0.0353,-0.0142,-0.0142,-0.0142,-0.0142,-0.0142,-0.0142,-0.1231,-0.1091,-0.1071,-0.0902,-0.0855,-0.0736,-0.0687,-0.0621,-0.0563,-0.0418,-0.0331,-0.0296,-0.023,-0.012,-0.0024,-0.0011,0.003,0.0063,0.0074,-0.0099,-0.0121,-0.0143,-0.0174,0.0071,0.0072,0.0252,0.0253,0.0255]}]]